Location: Ahausen
(50.4985°N, 8.2722°E)
Time: 03:42:32
(UTC+00:00)

ITUPSAT 1 - Pass Details

Date: 03 July 2022
Orbit: 701 x 711 km, 98.6° (Epoch: 11 August)

Event Time Altitude Azimuth Distance (km) Brightness Sun altitude
Rises 20:40:05 0° 10° (N) 3,114 ? -7.4°
Reaches altitude 10° 20:42:25 10° 5° (N) 2,192 ? -7.7°
Maximum altitude 20:47:00 47° 293° (WNW) 939 ? -8.1°
Drops below altitude 10° 20:51:35 10° 220° (SW) 2,182 ? -8.6°
Sets 20:53:53 0° 214° (SW) 3,098 ? -8.8°
